Regional Weather Roundup
Issued by NWS Sterling, VA

Home | Current Version | Previous Version | Text Only | Print | Product List | Glossary Off
Versions: 1 2 3 4 5 6 7 8 9 10 11 12 13 14 15 16 17 18 19 20 21 22 23 24 25 26 27 28 29 30 31 32 33 34 35 36 37 38 39 40 41 42 43 44 45 46 47 48 49 50

000
ASUS41 KLWX 060510
RWRLWX

REGIONAL WEATHER ROUNDUP
NATIONAL WEATHER SERVICE BALTIMORE MD/WASHINGTON DC
100 AM EDT WED MAY 06 2015

Note: "FAIR" indicates few or no clouds below 12,000 feet
with no significant weather and/or obstructions to visibility.
 TC=TEMPERATURE CELSIUS

 * =Non NWS site. Station does not report precipitation (e.g. rain,
    snow, etc.), thunder, or fog.

DCZ001-MDZ009-015-VAZ040>042-051-053>054-060600-
WASHINGTON METRO

CITY           SKY/WX    TMP DP  RH WIND       PRES   REMARKS
WASHINGTON NAT PTCLDY    66  61  84 SW6       30.24S
DULLES         PTCLDY    63  61  93 S8        30.24F
ANDREWS AFB    PTCLDY    64  63  99 SW10      30.22F
FT BELVOIR     PTCLDY    61  59  94 SE1       30.24S FOG
QUANTICO       MOCLDY    65  62  90 W3        30.25S
COLLEGE PARK*  PTCLDY    68  61  77 CALM      30.22F
LEESBURG*      PTCLDY    64  64 100 S5        30.24F
MANASSAS*      PTCLDY    63  61  94 CALM      30.24F
GAITHERSBURG*  CLEAR     64  59  82 SW3       30.28S

$$

MDZ006>007-011-014-060600-
BALTIMORE METRO

CITY           SKY/WX    TMP DP  RH WIND       PRES   REMARKS
BWI AIRPORT    PTCLDY    64  60  87 W6        30.21S
MD SCIENCE CTR   N/A     69  59  70 MISG      30.22S
MARTIN STATE   CLEAR     68  63  83 W3        30.23S
ANNAPOLIS      CLEAR     66  59  78 VRB6      30.21S
FORT MEADE*      N/A     59  57  94 CALM      30.25S VSB 1/2

$$

MDZ012-015-019>023-060600-
MARYLAND EASTERN SHORE

CITY           SKY/WX    TMP DP  RH WIND       PRES   REMARKS
OCEAN CITY     PTCLDY    66  58  75 SW9       30.23S
SALISBURY      PTCLDY    64  59  83 S6        30.23R
BAY BRIDGE AP*   N/A    N/A N/A N/A SW3       30.22S
CAMBRIDGE*     FAIR      64  61  88 CALM      30.21S
EASTON*        FAIR      65  65 100 CALM      30.25S

$$

MDZ017>025-060600-
SOUTHERN MARYLAND

CITY           SKY/WX    TMP DP  RH WIND       PRES   REMARKS
PATUXENT RIVER CLOUDY    65  62  90 W6        30.22S
ST INIGOES     MOCLDY    68  61  78 S7        30.23R
LEONARDTOWN*   MOCLDY    63  61  94 W3        30.24S

$$

MDZ003>005-060600-
NORTH CENTRAL MARYLAND

CITY           SKY/WX    TMP DP  RH WIND       PRES   REMARKS
FREDERICK*     CLEAR     63  55  77 SW3       30.25F
HAGERSTOWN APT PTCLDY    67  59  75 S5        30.22F
WESTMINSTER*   CLEAR     66  61  82 SW7       30.23F

$$

MDZ501>502-060600-
WESTERN MARYLAND

CITY           SKY/WX    TMP DP  RH WIND       PRES   REMARKS
OAKLAND*       CLEAR     61  59  94 S5        30.31S
CUMBERLAND*    CLEAR     63  59  88 CALM      30.27S

$$

VAZ025>031-060600-
SHENANDOAH VALLEY

CITY           SKY/WX    TMP DP  RH WIND       PRES   REMARKS
WINCHESTER*    PTCLDY    64  55  72 SW5       30.23F
FRONT ROYAL*   FAIR      61  59  94 CALM      30.24S
LURAY*         FOG       61  61 100 CALM      30.25F VSB 1
NEW MARKET*    MOCLDY    57  57  99 CALM      30.25S VSB 1/2
STAUNTON*      CLOUDY    60  57  89 CALM      30.28F
WAYNESBORO*    CLOUDY    64  59  83 CALM      30.27F

$$

WVZ021-048>050-054>055-060600-
EASTERN WEST VIRGINIA PANHANDLE

CITY           SKY/WX    TMP DP  RH WIND       PRES   REMARKS
MARTINSBURG    CLEAR     64  59  83 S6        30.23S
PETERSBURG*    FOG       56  53  89 CALM      30.25F VSB<1/4

$$

VAZ036>039-050-060600-
CENTRAL FOOTHILLS

CITY           SKY/WX    TMP DP  RH WIND       PRES   REMARKS
CHARLOTTESVILL CLOUDY    64  62  93 N3        30.26S FOG
CULPEPER*        N/A     62  62 100 CALM      30.26S FOG
ORANGE*        MOCLDY    63  63 100 CALM      30.27S FOG
GORDONSVILLE*  CLOUDY    60  60  99 CALM      30.25F FOG
WARRENTON*     MOCLDY    64  64 100 CALM      30.24F

$$

VAZ055>057-060600-
NORTH AND CENTRAL PIEDMONT

CITY           SKY/WX    TMP DP  RH WIND       PRES   REMARKS
FREDERICKSBRG*   N/A     66  66 100 CALM      30.24S FOG
STAFFORD*      FOG       62  32  32 CALM      30.28S VSB 3/4

$$

NCZ024-NYZ072-PAZ021-071-VAZ022-071-060600-
OTHER REGIONAL OBSERVATIONS

CITY           SKY/WX    TMP DP  RH WIND       PRES   REMARKS
NEW YORK CITY  CLOUDY    70  52  52 VRB3      30.22R
PHILADELPHIA   CLOUDY    70  61  73 SW8       30.22R
PITTSBURGH     PTCLDY    61  60  97 CALM      30.23S
ROANOKE        MOCLDY    66  55  67 CALM      30.28R
RICHMOND       CLOUDY    67  61  81 S7        30.26S
RALEIGH        MOCLDY    63  52  67 S5        30.29F

$$

ANZ530>537-060600-
MARINE OBSERVATIONS

STATION/POSITION TIME  TEMP    WIND        PRES
                       AIR SEA DIR/SP/G
                 (UTC) (F)     (DEG/KT/KT) (MB)
THOMAS PT LIGHT  0500   66 60  270/  8/  9 1023.7S
BALT KEY BRIDGE  0400   68     230/ 12/ 14 1022.5F
COVE POINT       0400   68     250/ 10/ 13 1023.9F
LEWISETTA        0400   68 68              1023.4F
SOLOMONS ISLAND  0406      64                N/A
PINEY POINT      0400          150/  1/  1   N/A

$$




USA.gov is the U.S. government's official web portal to all federal, state and local government web resources and services.